Riverton, WY

9:11 AM MST on January 18, 2018 (GMT -0700)
Riverton Regional

Weather History for KRIW - July, 2013

Change the Weather History Date:

Wednesday, July 24, 2013

  Actual Average Record
Temperature  
Mean Temperature 75 °F 73 °F  
Max Temperature 90 °F 89 °F 100 °F (2003)
Min Temperature 60 °F 58 °F 46 °F (2004)
Degree Days  
Heating Degree Days 0 0  
Month to date heating degree days 0 8  
Since 1 June heating degree days 52 127  
Since 1 July heating degree days 0 8  
Cooling Degree Days 10 8  
Month to date cooling degree days 270 162  
Year to date cooling degree days 420 237  
Since 1 June cooling degree days 407 228  
Growing Degree Days 25 (Base 50)    
Moisture  
Dew Point 40 °F    
Average Humidity 28    
Maximum Humidity 44    
Minimum Humidity 12    
Precipitation  
Precipitation T in 0.03 in 0.47 in (1998)
Month to date precipitation 0.28 0.74  
Year to date precipitation 3.77 6.10  
Snow  
Snow 0.00 in - - ()
Month to date snowfall 0.0  
Since 1 June snowfall 0.0  
Since 1 July snowfall 0.0  
Snow Depth 0.00 in    
Sea Level Pressure  
Sea Level Pressure 29.96 in    
Wind  
Wind Speed 7 mph (NNE)    
Max Wind Speed 32 mph    
Max Gust Speed 39 mph    
Visibility 10 miles    
Events Rain    
T = Trace of Precipitation, MM = Missing Value Source: NWS Daily Summary

Daily Weather History Graph

Daily Weather History Graph

Search for Another Location

Airport or City:

Trip Planner

Search our weather history database for the weather conditions in past years. The results will help you decide how hot, cold, wet, or windy it might be!

Date:

Astronomy

Jul. 24, 2013 Rise Set
Actual Time 5:56 AM MDT 8:43 PM MDT
Civil Twilight 5:23 AM MDT 9:16 PM MDT
Nautical Twilight 4:41 AM MDT 9:58 PM MDT
Astronomical Twilight 3:53 AM MDT 10:46 PM MDT
Moon 9:44 PM MDT (7/24) 8:25 AM MDT (7/24)
Length of Visible Light 15h 52m
Length of Day
14h 46m
Waning Gibbous, 94% of the Moon is Illuminated
Jul 24
Waning Gibbous
Jul 29
Last Quarter
Aug 6
New
Aug 14
First Quarter
Aug 20
Full

Hourly Weather History & Observations

Time (MDT) Temp. Dew Point Humidity Pressure Visibility Wind Dir Wind Speed Gust Speed Precip Events Conditions
12:53 AM 72.0 °F 33.1 °F 24% 29.99 in 10.0 mi ENE 5.8 mph - N/A   Clear
1:53 AM 70.0 °F 35.1 °F 28% 29.99 in 10.0 mi ENE 6.9 mph - N/A   Clear
2:53 AM 69.1 °F 35.1 °F 29% 29.98 in 10.0 mi ENE 8.1 mph - N/A   Clear
3:53 AM 66.9 °F 36.0 °F 32% 29.98 in 10.0 mi ENE 5.8 mph - N/A   Clear
4:53 AM 68.0 °F 37.0 °F 32% 29.98 in 10.0 mi NE 3.5 mph - N/A   Clear
5:53 AM 61.0 °F 37.9 °F 42% 30.01 in 10.0 mi Calm Calm - N/A   Clear
6:53 AM 66.0 °F 39.9 °F 38% 30.01 in 10.0 mi NNW 4.6 mph - N/A   Clear
7:53 AM 72.0 °F 42.1 °F 34% 30.01 in 10.0 mi East 3.5 mph - N/A   Clear
8:53 AM 73.0 °F 42.1 °F 33% 30.01 in 10.0 mi ESE 3.5 mph - N/A   Clear
9:53 AM 77.0 °F 41.0 °F 28% 30.00 in 10.0 mi ENE 9.2 mph - N/A   Clear
10:53 AM 78.1 °F 43.0 °F 29% 30.00 in 10.0 mi Variable 3.5 mph - N/A   Clear
11:53 AM 82.0 °F 44.1 °F 26% 29.97 in 10.0 mi Variable 4.6 mph - N/A   Clear
12:53 PM 84.9 °F 44.1 °F 24% 29.94 in 10.0 mi Variable 3.5 mph - N/A   Clear
1:53 PM 88.0 °F 37.0 °F 16% 29.91 in 10.0 mi East 8.1 mph 17.3 mph N/A   Clear
2:53 PM 87.1 °F 32.0 °F 14% 29.89 in 10.0 mi ESE 5.8 mph - N/A   Clear
3:53 PM 89.1 °F 30.0 °F 12% 29.86 in 10.0 mi NNE 6.9 mph - N/A   Clear
4:53 PM 88.0 °F 30.0 °F 12% 29.84 in 10.0 mi Variable 3.5 mph - N/A   Clear
5:53 PM 87.1 °F 34.0 °F 15% 29.87 in 10.0 mi NNE 10.4 mph - N/A   Clear
6:39 PM 73.4 °F 51.8 °F 47% 30.10 in 9.0 mi West 20.7 mph 39.1 mph 0.00 in Rain Light Rain
6:53 PM 75.0 °F 48.0 °F 38% 29.91 in 10.0 mi WSW 12.7 mph 29.9 mph 0.00 in   Overcast
7:19 PM 75.2 °F 46.4 °F 36% 30.12 in 10.0 mi WNW 9.2 mph - N/A   Overcast
7:53 PM 79.0 °F 39.9 °F 25% 29.89 in 10.0 mi SW 8.1 mph 19.6 mph 0.00 in   Mostly Cloudy
8:21 PM 77.0 °F 44.6 °F 32% 30.12 in 10.0 mi West 19.6 mph - N/A   Partly Cloudy
8:53 PM 73.9 °F 46.9 °F 38% 29.91 in 10.0 mi West 24.2 mph 32.2 mph N/A   Overcast
9:53 PM 75.9 °F 41.0 °F 29% 29.88 in 10.0 mi SW 10.4 mph - N/A   Clear
10:53 PM 71.1 °F 46.9 °F 42% 29.89 in 10.0 mi WSW 11.5 mph - N/A   Clear
11:53 PM 69.1 °F 46.0 °F 44% 29.89 in 10.0 mi NNW 5.8 mph - N/A   Clear